{"data":{"norad_id":59068,"epoch":"2026-09-19T23:43:17.804928Z","epoch_age_seconds":58492,"freshness":"FRESH","line1":"1 59068U 24039T   26262.98840052  .00002563  00000+0  19793-3 0  9997","line2":"2 59068  95.3819 300.4021 0142386 356.3472   3.6701 14.94280350138891","mean_motion":14.9428035,"eccentricity":0.0142386,"inclination_deg":95.3819,"raan_deg":300.4021,"arg_perigee_deg":356.3472,"mean_anomaly_deg":3.6701,"bstar":0.00019793,"rev_number":13889,"period_min":96.367458756986,"perigee_km":485.46764159399,"apogee_km":683.7471056708,"semimajor_km":6962.7443736324,"source":"CELESTRAK","updated_at":"2026-09-20T09:00:48.038494Z"}}